[[[{"header":{"parameterUnit":"kt","parameterCategory":2,"dx":1,"dy":1,"la1":30.253999710083008,"la2":30.299108505249023,"lo1":-89.0895004272461,"lo2":-89.04439544677734,"nx":28,"ny":28,"refTime":"2022-11-01T21:00:00:Z","depth":0,"parameterNumber":1,"parameterNumberName":"U-component_of_WINDS"},"data":[0.7346,0.7464,0.7515,0.7672,0.7744,0.786,0.7917,0.7996,0.8071,0.8212,0.8302,0.8365,0.8459,0.8577,0.8675,0.87,0.8738,0.874,0.8769,0.8713,0.8708,0.8704,0.868,0.8748,0.8748,0.882,0.8821,0.8821,0.7292,0.7365,0.7465,0.7595,0.768,0.7707,0.7813,0.7881,0.7983,0.8078,0.817,0.8299,0.8406,0.8503,0.8614,0.8667,0.8686,0.8693,0.869,0.8704,0.8645,0.8619,0.8676,0.8676,0.8676,0.8676,0.8676,0.8676,0.7208,0.7277,0.7388,0.7496,0.7577,0.7663,0.7738,0.7815,0.7912,0.8037,0.808,0.8197,0.8301,0.8462,0.8529,0.8619,0.862,0.8644,0.865,0.8655,0.8651,0.8534,0.8641,0.8641,0.8641,0.8641,0.8641,0,0.7162,0.7201,0.7301,0.7416,0.7499,0.7593,0.7688,0.7736,0.7836,0.7912,0.8026,0.81,0.8246,0.8358,0.8475,0.8541,0.8577,0.8588,0.8604,0.8584,0.8548,0.8566,0.8465,0.8585,0.8584,0.8584,0.8584,0.8584,0.7079,0.7155,0.7298,0.7361,0.7427,0.7528,0.7599,0.7683,0.7753,0.7882,0.7939,0.8053,0.815,0.8323,0.8412,0.8521,0.854,0.8578,0.8556,0.8532,0.8537,0.8531,0.8538,0.8581,0.8581,0.8582,0.8582,0,0.7026,0.7114,0.725,0.7384,0.742,0.7495,0.761,0.7683,0.7751,0.7861,0.7891,0.7998,0.8109,0.8194,0.8338,0.8378,0.8497,0.8513,0.846,0.8467,0.8508,0.8502,0.8636,0.8656,0.8588,0.8588,0.8589,0,0.6989,0.7087,0.7211,0.7286,0.7396,0.748,0.7586,0.7657,0.7752,0.7839,0.7895,0.7976,0.8073,0.8165,0.8225,0.8338,0.8366,0.8403,0.8417,0.8397,0.8392,0.8435,0.8431,0.8451,0.8451,0.845,0.8449,0,0.6896,0.708,0.7202,0.7258,0.7413,0.7468,0.7535,0.7643,0.7712,0.7815,0.7861,0.7975,0.8037,0.8123,0.82,0.8181,0.8341,0.8332,0.8379,0.8376,0.841,0.8406,0.8503,0.8448,0.8448,0.8448,0.8448,0,0.688,0.6986,0.7151,0.7281,0.7326,0.7407,0.7526,0.7615,0.7725,0.7769,0.7852,0.79,0.8009,0.7992,0.8142,0.8096,0.8153,0.8199,0.8204,0.8219,0.8197,0.8238,0.8324,0.8335,0.823,0.8229,0.8227,0,0.6748,0.694,0.7015,0.717,0.7271,0.7329,0.742,0.7517,0.7584,0.7678,0.7751,0.7858,0.7865,0.791,0.7973,0.8053,0.8113,0.8048,0.8177,0.8181,0.8143,0.8224,0.8215,0.8296,0.8205,0.8208,0.8209,0,0.6658,0.6849,0.6872,0.6939,0.7085,0.717,0.7275,0.7401,0.7459,0.7564,0.7652,0.7807,0.7816,0.7892,0.7945,0.8006,0.8075,0.8009,0.8013,0.8016,0.8203,0.8193,0.8206,0.8096,0.8099,0.8101,0.8192,0,0.6608,0.6718,0.6785,0.6934,0.7015,0.7119,0.7214,0.7285,0.7328,0.7398,0.7532,0.7638,0.7766,0.7806,0.785,0.7964,0.7958,0.7969,0.7959,0.8012,0.8044,0.8057,0.7903,0.7903,0.7904,0.7904,0,0,0.6459,0.6619,0.6701,0.6808,0.6881,0.6942,0.7044,0.7123,0.728,0.7327,0.7323,0.7555,0.7642,0.7794,0.7818,0.7872,0.79,0.7879,0.7987,0.7995,0.8004,0.8036,0.8049,0.7904,0.7904,0.7904,0.7904,0,0.6461,0.6551,0.6653,0.6738,0.6867,0.6938,0.6961,0.7101,0.7151,0.7285,0.7333,0.7425,0.7612,0.7695,0.7762,0.7863,0.7894,0.7895,0.7916,0.7986,0.7994,0.8002,0.8035,0.8046,0.7905,0.7905,0.7905,0,0.6387,0.6491,0.6551,0.6723,0.6809,0.6913,0.6926,0.7036,0.7113,0.7176,0.7309,0.7381,0.7503,0.7637,0.77,0.7698,0.7883,0.7844,0.7845,0.7854,0.7925,0.7935,0.7944,0.7825,0.7825,0.7824,0,0,0.6376,0.648,0.6619,0.6731,0.6782,0.6889,0.6955,0.7006,0.7116,0.7159,0.7253,0.7357,0.7466,0.7536,0.7643,0.7778,0.7808,0.783,0.7834,0.7836,0.7846,0.7919,0.7929,0.7822,0.7821,0.7821,0,0,0.6371,0.6537,0.6562,0.6705,0.6807,0.6952,0.7016,0.705,0.7157,0.7156,0.7248,0.728,0.7407,0.7477,0.7431,0.7641,0.763,0.7643,0.7591,0.7598,0.7601,0.7582,0.746,0,0,0,0,0,0.6424,0.6516,0.6537,0.6576,0.6795,0.6939,0.6968,0.7046,0.7035,0.7084,0.7167,0.7198,0.747,0.7432,0.7468,0.7518,0.7789,0.7794,0.78,0.7766,0.7771,0.7776,0,0,0,0,0,0,0.644,0.6487,0.6535,0.6682,0.6732,0.6937,0.6936,0.696,0.7032,0.7036,0.7181,0.7203,0.7272,0.7419,0.745,0.7496,0.7449,0.7791,0.7796,0.78,0.7768,0.7772,0.7776,0,0,0,0,0,0.6453,0.649,0.6823,0.6681,0.6725,0.685,0.6933,0.6953,0.701,0.7142,0.7164,0.7063,0.7271,0.7303,0.7438,0.748,0.7428,0.7439,0.7794,0.7798,0.7802,0.777,0,0,0,0,0,0,0.6462,0.6509,0.6833,0.6849,0.6653,0.684,0.6873,0.6947,0.7113,0.7137,0.7028,0.7029,0.7272,0.7296,0.7321,0.747,0.7411,0.7422,0.743,0.7797,0.78,0.7803,0,0,0,0,0,0,0.649,0.6523,0.6841,0.6802,0.6814,0.6831,0.686,0.6986,0.7114,0.699,0.6996,0.7026,0.7235,0.7292,0.7311,0.7506,0.7397,0.7409,0.7416,0.7421,0.78,0.7802,0,0,0,0,0,0,0.6505,0.6533,0.6798,0.6807,0.6818,0.7005,0.6944,0.7165,0.7081,0.6982,0.7075,0.7073,0.723,0.7251,0.7304,0.7491,0.7502,0.7398,0.7405,0.7411,0.7414,0,0,0,0,0,0,0,0.6517,0.6309,0.6738,0.6812,0.6821,0.6998,0.7002,0.7007,0.708,0.7078,0.7076,0.7074,0.7334,0.7346,0.7358,0.7478,0,0,0.7397,0.7402,0,0,0,0,0,0,0,0,0.6299,0.6306,0.6738,0.6741,0.6745,0.6999,0.7002,0.7006,0.708,0.7078,0.7076,0.7075,0.7337,0.7347,0.7357,0,0,0,0,0,0,0,0,0,0,0,0,0,0,0,0.6738,0.6741,0,0.6999,0.7002,0.7005,0.7079,0.7078,0.7077,0.7075,0.734,0.7348,0.7356,0,0,0,0,0,0,0,0,0,0,0,0,0,0,0,0,0,0,0,0,0,0,0,0,0,0,0,0,0,0,0,0,0,0,0,0,0,0,0,0,0,0,0,0,0,0,0,0,0,0,0,0,0,0,0,0,0,0,0,0,0,0,0,0,0,0,0,0,0]}],[{"header":{"parameterUnit":"kt","parameterCategory":2,"dx":1,"dy":1,"la1":30.253999710083008,"la2":30.299108505249023,"lo1":-89.0895004272461,"lo2":-89.04439544677734,"nx":28,"ny":28,"refTime":"2022-11-01T21:00:00:Z","depth":0,"parameterNumber":2,"parameterNumberName":"V-component_of_WINDS"},"data":[1.5642,1.568,1.5658,1.5691,1.5678,1.5696,1.5695,1.5693,1.5685,1.5704,1.5711,1.5694,1.5678,1.568,1.5686,1.5678,1.5679,1.5707,1.5691,1.5587,1.5571,1.5556,1.5543,1.571,1.571,1.5799,1.58,1.58,1.5563,1.555,1.5563,1.556,1.557,1.553,1.5525,1.5535,1.5552,1.5545,1.5551,1.5566,1.5576,1.5549,1.5554,1.5569,1.5548,1.5571,1.5566,1.5563,1.5453,1.544,1.5587,1.5587,1.5587,1.5587,1.5587,1.5587,1.5413,1.5438,1.5423,1.5436,1.543,1.5428,1.5448,1.5426,1.5438,1.5441,1.5415,1.5434,1.5422,1.5418,1.5412,1.5425,1.5395,1.5413,1.5415,1.5418,1.5423,1.5286,1.5426,1.5426,1.5425,1.5425,1.5424,0,1.5294,1.5275,1.5286,1.529,1.5299,1.5301,1.5299,1.5311,1.5262,1.5275,1.529,1.5295,1.5305,1.5315,1.5316,1.5305,1.5261,1.5257,1.5267,1.5275,1.5282,1.5271,1.5086,1.5251,1.525,1.5249,1.5248,1.5247,1.5134,1.5169,1.5144,1.5155,1.5148,1.5168,1.5174,1.5129,1.5137,1.5128,1.5152,1.5164,1.517,1.5199,1.5171,1.5179,1.5156,1.522,1.5156,1.5164,1.5148,1.5143,1.5143,1.5231,1.5233,1.5235,1.5236,0,1.5045,1.5011,1.5056,1.5029,1.5023,1.5061,1.5036,1.506,1.5037,1.5066,1.507,1.5032,1.5048,1.501,1.5023,1.5002,1.5057,1.5039,1.5059,1.505,1.5099,1.5092,1.5276,1.5295,1.513,1.5131,1.5133,0,1.4891,1.4939,1.4883,1.4911,1.4961,1.4914,1.4964,1.4949,1.4938,1.496,1.4906,1.4928,1.4877,1.4894,1.4864,1.4904,1.4908,1.4892,1.4881,1.4892,1.4893,1.489,1.4879,1.4867,1.4866,1.4866,1.4865,0,1.4749,1.4778,1.4825,1.4825,1.4801,1.4824,1.4815,1.4803,1.481,1.4814,1.4817,1.4827,1.483,1.4838,1.4797,1.4755,1.4848,1.4781,1.483,1.483,1.4847,1.4845,1.5024,1.4864,1.4864,1.4863,1.4863,0,1.4617,1.4622,1.4699,1.4675,1.4684,1.4717,1.472,1.474,1.4731,1.4714,1.4717,1.4674,1.4711,1.4646,1.4694,1.4648,1.4654,1.4644,1.4647,1.4641,1.4567,1.4664,1.4845,1.4858,1.4644,1.4642,1.4641,0,1.4459,1.4528,1.4486,1.4561,1.4585,1.4519,1.4555,1.4549,1.4529,1.4547,1.4524,1.4546,1.4491,1.4491,1.4521,1.4497,1.4557,1.4489,1.4508,1.4509,1.4504,1.4672,1.4704,1.4811,1.4617,1.462,1.4621,0,1.4331,1.4302,1.4319,1.4314,1.4301,1.4323,1.4366,1.4376,1.4389,1.4393,1.4422,1.4457,1.4413,1.4416,1.4383,1.4416,1.4515,1.4364,1.4363,1.4386,1.4605,1.4634,1.4652,1.4485,1.4488,1.449,1.4603,0,1.4125,1.4157,1.4202,1.42,1.4213,1.426,1.4218,1.4236,1.4201,1.4177,1.4226,1.4214,1.4225,1.4239,1.4207,1.4296,1.4273,1.4228,1.4155,1.427,1.4305,1.432,1.4106,1.4104,1.4102,1.41,0,0,1.3979,1.4023,1.3976,1.4015,1.4021,1.3951,1.4004,1.4003,1.4002,1.4007,1.3968,1.4012,1.4004,1.4066,1.4099,1.4107,1.4116,1.4079,1.4218,1.4231,1.4243,1.4282,1.4298,1.4097,1.4096,1.4096,1.4095,0,1.3892,1.3888,1.3942,1.3938,1.3931,1.3903,1.3917,1.3897,1.3884,1.3934,1.3873,1.3898,1.3938,1.3933,1.3936,1.4073,1.4023,1.4081,1.4164,1.42,1.4216,1.4229,1.4271,1.4287,1.409,1.4091,1.4091,0,1.3753,1.3738,1.3761,1.3776,1.3771,1.3801,1.3716,1.3754,1.3774,1.3695,1.3744,1.3732,1.3725,1.3793,1.3823,1.3787,1.3939,1.3887,1.3898,1.3898,1.3931,1.395,1.3967,1.374,1.3739,1.3738,0,0,1.3684,1.3714,1.3684,1.3754,1.3755,1.3716,1.3729,1.3694,1.369,1.3689,1.3671,1.3668,1.3689,1.3704,1.3723,1.3805,1.3797,1.3845,1.3862,1.3876,1.3883,1.3919,1.3939,1.3734,1.3734,1.3734,0,0,1.365,1.3617,1.3582,1.3659,1.3657,1.3631,1.3675,1.3631,1.3644,1.3633,1.3577,1.3574,1.3638,1.3628,1.3579,1.3695,1.3626,1.3637,1.3698,1.3718,1.3734,1.3732,1.3488,0,0,0,0,0,1.3539,1.3621,1.359,1.3596,1.3615,1.3649,1.3651,1.3606,1.3556,1.3592,1.3569,1.3517,1.3589,1.3544,1.3552,1.3605,1.3682,1.3691,1.37,1.3798,1.3819,1.3838,0,0,0,0,0,0,1.3541,1.355,1.3587,1.3565,1.3569,1.3645,1.3551,1.3541,1.3551,1.354,1.3523,1.3517,1.3479,1.3538,1.3545,1.3596,1.3485,1.3686,1.3694,1.3701,1.3805,1.3823,1.3838,0,0,0,0,0,1.3543,1.355,1.3592,1.3564,1.3567,1.3527,1.3547,1.3538,1.3545,1.3511,1.3503,1.351,1.3482,1.3485,1.3542,1.3594,1.348,1.3483,1.3691,1.3697,1.3702,1.3814,0,0,0,0,0,0,1.3544,1.3541,1.3591,1.3591,1.3529,1.3522,1.3519,1.3536,1.3514,1.3507,1.3495,1.3487,1.3485,1.3487,1.349,1.3596,1.3476,1.3479,1.348,1.3695,1.37,1.3705,0,0,0,0,0,0,1.3537,1.3541,1.3591,1.355,1.3544,1.3517,1.3515,1.3558,1.3515,1.3499,1.3491,1.3491,1.3481,1.3489,1.349,1.3559,1.3472,1.3475,1.3477,1.3478,1.3699,1.3703,0,0,0,0,0,0,1.3538,1.3541,1.355,1.3546,1.354,1.3528,1.3554,1.3576,1.348,1.3501,1.3471,1.3466,1.3485,1.3485,1.3491,1.356,1.3559,1.3472,1.3474,1.3476,1.3477,0,0,0,0,0,0,0,1.3539,1.3527,1.3596,1.3542,1.3537,1.3584,1.3584,1.3583,1.3479,1.3476,1.3472,1.3468,1.3456,1.3459,1.3463,1.356,0,0,1.3472,1.3474,0,0,0,0,0,0,0,0,1.3525,1.3527,1.3596,1.3596,1.3595,1.3584,1.3584,1.3583,1.3479,1.3476,1.3472,1.3469,1.3457,1.346,1.3462,0,0,0,0,0,0,0,0,0,0,0,0,0,0,0,1.3596,1.3596,0,1.3584,1.3584,1.3584,1.3478,1.3476,1.3473,1.3471,1.3458,1.346,1.3462,0,0,0,0,0,0,0,0,0,0,0,0,0,0,0,0,0,0,0,0,0,0,0,0,0,0,0,0,0,0,0,0,0,0,0,0,0,0,0,0,0,0,0,0,0,0,0,0,0,0,0,0,0,0,0,0,0,0,0,0,0,0,0,0,0,0,0,0,0]}]]]